World > North America > United States > Texas

Hourly Malone, TX Regional Weather

Feedback E-mail the Weather

Quick WX

Malone, TX Weather Maps

°F °C°F °C
Malone Weather Map
UTC Time: 7/6/2022, 04:41
Your Time:

Malone, TX Regional Weather

Expires:202207060500;;764227
ASUS44 KFWD 060415
RWRTX 
NORTH TEXAS HOURLY WEATHER ROUNDUP
NATIONAL WEATHER SERVICE FORT WORTH TX
1100 PM CDT TUE JUL 05 2022

NOTE: "FAIR" INDICATES FEW OR NO CLOUDS BELOW 12,000 FEET WITH NO
SIGNIFICANT WEATHER AND/OR OBSTRUCTIONS TO VISIBILITY.


TXZ143>147-156>162-174-175-060500-
CENTRAL TEXAS
  
CITY           SKY/WX    TMP DP  RH WIND       PRES   REMARKS
WACO           FAIR      91  65  41 S12       29.92R HX  93           
WACO-TSTC      CLEAR     86  63  45 SE5       29.93R                  
WACO-MCGREGOR  FAIR      86  65  49 S7        29.94R                  
HILLSBORO      FAIR      88  64  44 SE8       29.93R                  
CORSICANA      FAIR      85  66  53 S6        29.94R                  
MEXIA          FAIR      83  66  57 CALM      29.94R                  
HEARNE         FAIR      88  68  51 SE6       29.96R HX  91           
CAMERON        FAIR      89  66  47 S9G16     29.94R HX  91           
TEMPLE         FAIR      89  65  44 SE13      29.95R HX  91           
KILLEEN        CLEAR     86  66  51 VRB3      29.94R                  
KILLEEN-SKYLRK FAIR      87  66  49 S10       29.95R                  
FORT HOOD      FAIR      87  64  45 SE8       29.95R                  
GATESVILLE     FAIR      86  63  45 MISG      29.97R                  
$$


SKY/WX - Weather  TMP - Temperature  DP - Dew Point  RH - Humidity
WIND - Wind Direction/Speed PRES - Barometric Pressure VSB - Visibility
WCI - Wind Chill Index E13G22 Wind - East Wind 13 mph/Gusts of 22 mph

Trending Headlines

Malone Radar Loop



Malone Quick Facts


National Two Day Weather Forecast


E-mail the Malone Weather Forecast

Voice your opinion or tell us about page issues...